[[{"header":{"parameterUnit":"m.s-1","parameterCategory":1,"la1":30.2992,"la2":30.254,"lo1":-89.0895,"lo2":-89.0443,"dy":0.0025,"dx":0.0025,"nx":19,"ny":19,"refTime":"2026-05-14T09:00:00:Z","depth":0,"parameterNumber":2,"parameterNumberName":"U-component_of_WINDS"},"data":[0,0,0,-2.0035,-2.0037,-2.012,-2.012,-2.0228,-2.0229,0,0,0,0,0,0,0,0,0,0,0,-2.0011,-2.0012,-2.0035,-2.0037,-2.012,-2.012,-2.0228,-2.0229,0,0,0,0,0,0,0,0,0,0,0,-2.0011,-2.0012,-2.0013,-2.0037,-2.012,-2.012,-2.0228,-2.0165,0,0,0,0,0,0,0,0,0,0,-2.0084,-2.0063,-2.0012,-2.0013,-2.0038,-2.012,-2.012,-2.0162,-2.0169,-2.0192,0,-2.0212,0,-2.0222,-2.0237,-2.0237,0,0,0,-2.0036,-2.0057,-2.0078,-2.0013,-2.0038,-2.0119,-2.0082,-2.0166,-2.0174,-2.0201,-2.0213,-2.0217,-2.0224,-2.0237,-2.0238,-2.0372,-2.0372,0,0,-2.0032,-2.0027,-2.0073,-2.0084,-2.007,-2.008,-2.0085,-2.017,-2.0184,-2.0214,-2.022,-2.0226,-2.0238,-2.0239,-2.0371,-2.0372,0,0,0,-2.0019,-2.0024,-2.0043,-2.0079,-2.0094,-2.0082,-2.0088,-2.018,-2.0187,-2.0221,-2.0227,-2.0239,-2.024,-2.037,-2.0371,-2.0398,0,0,0,-2.0016,-2.0016,-2.0041,-2.0039,-2.0092,-2.0138,-2.0096,-2.0181,-2.0191,-2.0227,-2.0239,-2.0241,-2.037,-2.0371,-2.0396,-2.0412,0,0,0,-2.0006,-2.0015,-2.0027,-2.0038,-2.0074,-2.0137,-2.0148,-2.0183,-2.0194,-2.0237,-2.0242,-2.0369,-2.0371,-2.0394,-2.0408,-2.0445,0,0,0,-1.9993,-2.005,-2.0028,-2.0094,-2.0073,-2.0153,-2.0148,-2.0207,-2.0247,-2.0239,-2.037,-2.0371,-2.0393,-2.0406,-2.0443,-2.0475,-2.0488,0,0,-2.0063,-2.0059,-2.0098,-2.008,-2.0162,-2.014,-2.0227,-2.0269,-2.0277,-2.034,-2.0343,-2.0397,-2.0408,-2.0445,-2.0563,-2.0573,0,0,0,-2.0119,-2.0147,-2.017,-2.0207,-2.024,-2.027,-2.0299,-2.0314,-2.0367,-2.0308,-2.042,-2.0427,-2.0449,-2.0464,-2.0473,-2.0492,-2.0378,-2.0378,-2.0378,-2.021,-2.0218,-2.0284,-2.0302,-2.0339,-2.0368,-2.0398,-2.0424,-2.0422,-2.0448,-2.0466,-2.0537,-2.0555,-2.0562,-2.0581,-2.0484,-2.0484,-2.0485,-2.0485,-2.0312,-2.0354,-2.0349,-2.0411,-2.042,-2.0472,-2.0503,-2.0499,-2.055,-2.0524,-2.0543,-2.0514,-2.0573,-2.059,-2.0487,-2.0486,-2.0486,-2.0486,-2.0486,-2.0373,-2.0394,-2.0412,-2.0467,-2.0509,-2.0525,-2.0574,-2.058,-2.0586,-2.0605,-2.0625,-2.0625,-2.0625,-2.0615,-2.0615,-2.0615,-2.0615,-2.0615,-2.0616,-2.0428,-2.0447,-2.0487,-2.0527,-2.0552,-2.0586,-2.0616,-2.0641,-2.067,-2.0671,-2.0671,-2.0666,-2.0577,-2.0554,-2.0619,-2.0619,-2.0618,-2.0618,-2.0618,-2.0529,-2.0507,-2.0569,-2.0594,-2.0641,-2.0682,-2.0689,-2.074,-2.0761,-2.0785,-2.0776,-2.0709,-2.0706,-2.0699,-2.068,-2.0774,-2.0774,-2.0774,-2.0774,-2.058,-2.0578,-2.0643,-2.0682,-2.0722,-2.0734,-2.0804,-2.0828,-2.085,-2.0864,-2.0851,-2.0827,-2.082,-2.082,-2.0811,-2.0793,-2.0914,-2.0914,-2.0914,-2.0642,-2.0645,-2.0703,-2.0723,-2.076,-2.0792,-2.0858,-2.0904,-2.0924,-2.092,-2.0875,-2.0869,-2.083,-2.0817,-2.0811,-2.0796,-2.0764,0,0]},{"header":{"parameterUnit":"m.s-1","parameterCategory":1,"la1":30.2992,"la2":30.254,"lo1":-89.0895,"lo2":-89.0443,"dy":0.0025,"dx":0.0025,"nx":19,"ny":19,"refTime":"2026-05-14T09:00:00:Z","depth":0,"parameterNumber":3,"parameterNumberName":"V-component_of_WINDS"},"data":[0,0,0,3.7735,3.7736,3.7772,3.7772,3.7834,3.7835,0,0,0,0,0,0,0,0,0,0,0,3.7737,3.7737,3.7735,3.7737,3.7772,3.7772,3.7834,3.7835,0,0,0,0,0,0,0,0,0,0,0,3.7736,3.7737,3.7738,3.7737,3.7772,3.7772,3.7834,3.7801,0,0,0,0,0,0,0,0,0,0,3.7763,3.7776,3.7737,3.7738,3.7737,3.7772,3.7772,3.7799,3.7803,3.7826,0,3.785,0,3.7844,3.784,3.784,0,0,0,3.7728,3.7773,3.7772,3.7738,3.7737,3.7772,3.7753,3.7801,3.7805,3.7831,3.7851,3.7853,3.7845,3.7841,3.7841,3.8002,3.8003,0,0,3.7726,3.7749,3.7769,3.7776,3.7772,3.7752,3.7755,3.7803,3.7826,3.7851,3.7854,3.7846,3.7841,3.7842,3.8001,3.8002,0,0,0,3.7726,3.7748,3.7745,3.7773,3.7779,3.7754,3.7756,3.7824,3.7821,3.7854,3.7846,3.7842,3.7843,3.8,3.8001,3.8079,0,0,0,3.7725,3.7748,3.7745,3.776,3.7778,3.7802,3.7776,3.7818,3.7822,3.7846,3.7842,3.7843,3.7998,3.8,3.8074,3.8112,0,0,0,3.773,3.7749,3.7758,3.7761,3.7777,3.7801,3.78,3.7818,3.7818,3.784,3.7844,3.7997,3.8,3.807,3.8105,3.8159,0,0,0,3.7743,3.7829,3.776,3.7852,3.7777,3.7849,3.78,3.7853,3.7882,3.7842,3.7998,3.8001,3.8069,3.81,3.8154,3.8207,3.8232,0,0,3.7864,3.7844,3.7896,3.7835,3.7926,3.7842,3.7944,3.7948,3.793,3.7979,3.7982,3.8076,3.8104,3.8158,3.8366,3.8386,0,0,0,3.7942,3.7979,3.7998,3.8026,3.8032,3.8038,3.8025,3.8026,3.8066,3.796,3.8111,3.8127,3.8157,3.8181,3.8198,3.8221,3.8014,3.8014,3.8013,3.8146,3.8116,3.8199,3.8173,3.8201,3.8185,3.8204,3.8202,3.8166,3.8202,3.8216,3.8346,3.8375,3.8387,3.8412,3.8243,3.8243,3.8244,3.8244,3.8317,3.8364,3.8312,3.8373,3.8341,3.8392,3.8379,3.8351,3.8393,3.8334,3.8359,3.8295,3.841,3.843,3.8249,3.8248,3.8248,3.8247,3.8247,3.8445,3.8462,3.8462,3.8497,3.8527,3.8498,3.854,3.851,3.8482,3.8507,3.8516,3.8515,3.8507,3.8514,3.8514,3.8515,3.8515,3.8516,3.8516,3.8578,3.8574,3.8613,3.8624,3.8636,3.8648,3.8632,3.8643,3.8647,3.8622,3.8622,3.858,3.8428,3.8389,3.8523,3.8521,3.8521,3.852,3.8519,3.8759,3.8712,3.8773,3.8785,3.8793,3.8823,3.8784,3.8808,3.8813,3.8834,3.8787,3.8681,3.8658,3.8644,3.8611,3.8795,3.8795,3.8795,3.8795,3.8865,3.8851,3.8903,3.8924,3.8941,3.8911,3.8977,3.8965,3.8944,3.8945,3.8915,3.8869,3.8857,3.8842,3.8824,3.8792,3.9018,3.9018,3.9018,3.8974,3.8959,3.9022,3.9,3.9004,3.9007,3.9068,3.9093,3.9061,3.9026,3.8944,3.8935,3.8861,3.884,3.8802,3.8775,3.8717,0,0]}]]